FDX4320 UGTB-LTAC

Flight info

Callsign FDX4320
Flight time 1h 30m
Altitude 36000
Route ZAGOT DCT NOLGA UG261 TBN UW71 ILHAN
Aircraft MD11/H-SDE1E2E3FGHIJ2J3J4J5M1RWXY/LB1D1

Departure

Time 2026-05-04 18:34
Airport Tbilisi International Airport (UGTB)

Arrival

Time 2026-05-04 20:05
Airport Esenboğa International Airport (LTAC)
Time Latitude Longitude Altitude Speed Heading
2026-05-04 17:46 41.67085 44.96047 1534 ft 0 kts 43°
2026-05-04 18:17 41.67057 44.96013 1528 ft 3 kts 43°
2026-05-04 18:18 41.67042 44.95991 1525 ft 4 kts 75°
2026-05-04 18:18 41.67041 44.95968 1525 ft 4 kts 126°
2026-05-04 18:18 41.67058 44.95943 1525 ft 2 kts 133°
2026-05-04 18:18 41.67060 44.95940 1525 ft 0 kts 133°
2026-05-04 18:26 41.67059 44.95941 1534 ft 1 kts 133°
2026-05-04 18:26 41.67043 44.95964 1526 ft 6 kts 133°
2026-05-04 18:27 41.67005 44.96020 1529 ft 11 kts 133°
2026-05-04 18:27 41.66954 44.96093 1527 ft 10 kts 133°
2026-05-04 18:27 41.66913 44.96155 1527 ft 8 kts 128°
2026-05-04 18:27 41.66881 44.96205 1525 ft 6 kts 131°
2026-05-04 18:28 41.66854 44.96244 1526 ft 6 kts 132°
2026-05-04 18:28 41.66815 44.96300 1527 ft 11 kts 133°
2026-05-04 18:28 41.66761 44.96376 1529 ft 9 kts 135°
2026-05-04 18:28 41.66715 44.96418 1532 ft 7 kts 156°
2026-05-04 18:29 41.66662 44.96419 1530 ft 10 kts 188°
2026-05-04 18:29 41.66611 44.96405 1530 ft 13 kts 192°
2026-05-04 18:29 41.66509 44.96375 1531 ft 15 kts 192°
2026-05-04 18:29 41.66413 44.96343 1530 ft 14 kts 194°
2026-05-04 18:30 41.66256 44.96302 1527 ft 9 kts 181°
2026-05-04 18:30 41.66199 44.96311 1526 ft 7 kts 166°
2026-05-04 18:30 41.66147 44.96341 1531 ft 11 kts 148°
2026-05-04 18:31 41.66083 44.96412 1525 ft 11 kts 136°
2026-05-04 18:31 41.66032 44.96478 1526 ft 9 kts 136°
2026-05-04 18:31 41.65979 44.96546 1526 ft 11 kts 136°
2026-05-04 18:31 41.65924 44.96592 1527 ft 8 kts 164°
2026-05-04 18:32 41.65891 44.96592 1528 ft 0 kts 191°
2026-05-04 18:32 41.65889 44.96591 1529 ft 2 kts 192°
2026-05-04 18:33 41.65858 44.96559 1526 ft 10 kts 232°
2026-05-04 18:33 41.65865 44.96440 1527 ft 14 kts 302°
2026-05-04 18:33 41.65876 44.96422 1524 ft 0 kts 314°
2026-05-04 18:34 41.65948 44.96324 1528 ft 53 kts 315°
2026-05-04 18:34 41.66454 44.95689 1526 ft 144 kts 317°
2026-05-04 18:34 41.67316 44.94610 1851 ft 183 kts 317°
2026-05-04 18:34 41.68232 44.93465 2914 ft 177 kts 318°
2026-05-04 18:35 41.69124 44.92400 3981 ft 173 kts 315°
2026-05-04 18:35 41.70045 44.91246 4719 ft 195 kts 314°
2026-05-04 18:35 41.71161 44.89835 4926 ft 243 kts 315°
2026-05-04 18:35 41.72487 44.88172 5324 ft 270 kts 316°
2026-05-04 18:36 41.73754 44.86247 6133 ft 280 kts 301°
2026-05-04 18:36 41.74465 44.83823 7016 ft 282 kts 280°
2026-05-04 18:36 41.74738 44.81193 7892 ft 287 kts 274°
2026-05-04 18:36 41.74899 44.78502 8766 ft 292 kts 272°
2026-05-04 18:37 41.75042 44.75767 9627 ft 298 kts 271°
2026-05-04 18:37 41.75189 44.72959 10294 ft 311 kts 271°
2026-05-04 18:37 41.75348 44.69958 10422 ft 342 kts 271°
2026-05-04 18:37 41.75531 44.66635 10613 ft 369 kts 271°
2026-05-04 18:38 41.75732 44.63186 11427 ft 374 kts 272°
2026-05-04 18:38 41.75941 44.59708 12398 ft 375 kts 271°
2026-05-04 18:38 41.76150 44.56210 13277 ft 378 kts 271°
2026-05-04 18:38 41.76359 44.52667 14050 ft 382 kts 271°
2026-05-04 18:39 41.76567 44.49091 14704 ft 387 kts 271°
2026-05-04 18:39 41.76776 44.45476 15428 ft 389 kts 271°
2026-05-04 18:39 41.76984 44.41836 16112 ft 394 kts 270°
2026-05-04 18:39 41.77194 44.38160 16811 ft 398 kts 270°
2026-05-04 18:40 41.77403 44.34440 17456 ft 403 kts 270°
2026-05-04 18:40 41.77614 44.30678 18115 ft 407 kts 270°
2026-05-04 18:40 41.77827 44.26877 18656 ft 411 kts 270°
2026-05-04 18:40 41.78038 44.23079 19176 ft 415 kts 270°
2026-05-04 18:41 41.78246 44.19159 19679 ft 417 kts 269°
2026-05-04 18:41 41.78221 44.15270 20137 ft 420 kts 263°
2026-05-04 18:41 41.77985 44.11395 20526 ft 423 kts 260°
2026-05-04 18:41 41.77659 44.07499 21037 ft 426 kts 259°
2026-05-04 18:42 41.77304 44.03552 21561 ft 429 kts 259°
2026-05-04 18:42 41.76947 43.99560 22040 ft 433 kts 260°
2026-05-04 18:42 41.76597 43.95524 22550 ft 437 kts 260°
2026-05-04 18:42 41.76255 43.91477 23050 ft 441 kts 260°
2026-05-04 18:43 41.75913 43.87366 23557 ft 445 kts 260°
2026-05-04 18:43 41.75573 43.83244 24074 ft 447 kts 260°
2026-05-04 18:43 41.75230 43.79084 24641 ft 449 kts 259°
2026-05-04 18:43 41.75131 43.77886 24799 ft 449 kts 259°
2026-05-04 18:44 41.75018 43.76514 24979 ft 450 kts 259°
2026-05-04 18:44 41.74789 43.73751 25322 ft 452 kts 259°
2026-05-04 18:44 41.74534 43.70681 25744 ft 453 kts 259°
2026-05-04 18:44 41.74183 43.66481 26281 ft 455 kts 259°
2026-05-04 18:45 41.73828 43.62251 26817 ft 458 kts 259°
2026-05-04 18:45 41.73468 43.58000 27296 ft 461 kts 259°
2026-05-04 18:45 41.73106 43.53728 27826 ft 463 kts 258°
2026-05-04 18:45 41.72741 43.49426 28385 ft 465 kts 258°
2026-05-04 18:46 41.72375 43.45131 28993 ft 465 kts 258°
2026-05-04 18:46 41.72006 43.40834 29521 ft 466 kts 258°
2026-05-04 18:46 41.71632 43.36507 29983 ft 468 kts 258°
2026-05-04 18:46 41.71261 43.32225 30369 ft 470 kts 258°
2026-05-04 18:47 41.70882 43.27877 30794 ft 469 kts 258°
2026-05-04 18:47 41.70503 43.23538 31228 ft 469 kts 258°
2026-05-04 18:47 41.70123 43.19217 31663 ft 468 kts 258°
2026-05-04 18:47 41.69740 43.14881 32097 ft 467 kts 258°
2026-05-04 18:48 41.69358 43.10574 32531 ft 467 kts 258°
2026-05-04 18:48 41.68967 43.06260 32933 ft 468 kts 258°
2026-05-04 18:48 41.68557 43.01910 33144 ft 472 kts 258°
2026-05-04 18:48 41.68147 42.97554 33493 ft 472 kts 258°
2026-05-04 18:49 41.67741 42.93200 33869 ft 472 kts 258°
2026-05-04 18:49 41.67341 42.88847 34204 ft 471 kts 258°
2026-05-04 18:49 41.66942 42.84493 34515 ft 471 kts 258°
2026-05-04 18:49 41.66545 42.80150 34834 ft 470 kts 258°
2026-05-04 18:50 41.66148 42.75819 35141 ft 469 kts 258°
2026-05-04 18:50 41.65748 42.71478 35432 ft 469 kts 258°
2026-05-04 18:50 41.65349 42.67164 35706 ft 468 kts 258°
2026-05-04 18:50 41.64952 42.62898 35827 ft 469 kts 259°
2026-05-04 18:51 41.64547 42.58565 35848 ft 469 kts 259°
2026-05-04 18:51 41.63734 42.49910 35876 ft 469 kts 259°
2026-05-04 18:52 41.62911 42.41222 35860 ft 471 kts 259°
2026-05-04 18:52 41.62083 42.32539 35861 ft 471 kts 259°
2026-05-04 18:53 41.61247 42.23846 35881 ft 471 kts 259°
2026-05-04 18:53 41.60406 42.15172 35865 ft 471 kts 259°
2026-05-04 18:54 41.59556 42.06483 35866 ft 471 kts 259°
2026-05-04 18:54 41.58707 41.97878 35857 ft 471 kts 258°
2026-05-04 18:55 41.57809 41.89180 35863 ft 473 kts 258°
2026-05-04 18:55 41.56473 41.76124 35856 ft 473 kts 259°
2026-05-04 18:56 41.55591 41.67429 35855 ft 473 kts 259°
2026-05-04 18:56 41.54708 41.58762 35858 ft 472 kts 259°
2026-05-04 18:57 41.53813 41.50058 35858 ft 473 kts 259°
2026-05-04 18:57 41.52913 41.41372 35871 ft 472 kts 259°
2026-05-04 18:58 41.52011 41.32735 35857 ft 474 kts 259°
2026-05-04 18:58 41.51093 41.24009 35853 ft 474 kts 259°
2026-05-04 18:59 41.50168 41.15283 35858 ft 474 kts 259°
2026-05-04 18:59 41.49238 41.06574 35858 ft 474 kts 259°
2026-05-04 19:00 41.48308 40.97922 35869 ft 473 kts 259°
2026-05-04 19:00 41.47365 40.89218 35863 ft 473 kts 259°
2026-05-04 19:01 41.46387 40.80532 35872 ft 474 kts 259°
2026-05-04 19:01 41.45403 40.71821 35882 ft 475 kts 259°
2026-05-04 19:02 41.44432 40.63114 35881 ft 475 kts 259°
2026-05-04 19:02 41.43467 40.54453 35881 ft 475 kts 259°
2026-05-04 19:03 41.42491 40.45752 35889 ft 475 kts 259°
2026-05-04 19:03 41.41508 40.37056 35876 ft 475 kts 259°
2026-05-04 19:04 41.40517 40.28357 35893 ft 475 kts 259°
2026-05-04 19:04 41.39518 40.19651 35885 ft 476 kts 259°
2026-05-04 19:05 41.38514 40.10954 35889 ft 475 kts 259°
2026-05-04 19:05 41.37503 40.02250 35889 ft 475 kts 259°
2026-05-04 19:06 41.36486 39.93563 35887 ft 475 kts 259°
2026-05-04 19:06 41.35463 39.84880 35897 ft 475 kts 259°
2026-05-04 19:07 41.34433 39.76252 35898 ft 475 kts 258°
2026-05-04 19:07 41.33362 39.67583 35898 ft 475 kts 258°
2026-05-04 19:08 41.32302 39.58910 35897 ft 475 kts 259°
2026-05-04 19:08 41.31249 39.50230 35898 ft 475 kts 259°
2026-05-04 19:09 41.30194 39.41563 35897 ft 475 kts 258°
2026-05-04 19:09 41.29138 39.32943 35895 ft 474 kts 259°
2026-05-04 19:10 41.28071 39.24288 35892 ft 474 kts 258°
2026-05-04 19:10 41.26995 39.15626 35895 ft 475 kts 259°
2026-05-04 19:11 41.25912 39.06962 35892 ft 475 kts 259°
2026-05-04 19:11 41.24827 38.98330 35892 ft 475 kts 258°
2026-05-04 19:12 41.23179 38.85333 35892 ft 475 kts 258°
2026-05-04 19:13 41.22080 38.76724 35892 ft 475 kts 258°
2026-05-04 19:13 41.20964 38.68079 35895 ft 475 kts 258°
2026-05-04 19:14 41.19811 38.59433 35893 ft 476 kts 258°
2026-05-04 19:14 41.18663 38.50762 35893 ft 476 kts 258°
2026-05-04 19:15 41.17532 38.42150 35901 ft 476 kts 258°
2026-05-04 19:15 41.16392 38.33487 35909 ft 476 kts 258°
2026-05-04 19:16 41.15245 38.24830 35917 ft 476 kts 258°
2026-05-04 19:16 41.14279 38.17577 35924 ft 476 kts 258°
2026-05-04 19:17 41.13128 38.08987 35931 ft 477 kts 258°
2026-05-04 19:17 41.11958 38.00309 35932 ft 478 kts 258°
2026-05-04 19:18 41.10781 37.91628 35930 ft 478 kts 258°
2026-05-04 19:18 41.09598 37.82949 35926 ft 478 kts 258°
2026-05-04 19:19 41.08408 37.74275 35925 ft 478 kts 258°
2026-05-04 19:19 41.07221 37.65671 35921 ft 478 kts 258°
2026-05-04 19:20 41.06008 37.57030 35924 ft 477 kts 258°
2026-05-04 19:20 41.04766 37.48374 35917 ft 478 kts 258°
2026-05-04 19:21 41.03536 37.39714 35914 ft 478 kts 258°
2026-05-04 19:21 41.02312 37.31048 35917 ft 478 kts 258°
2026-05-04 19:22 41.01082 37.22381 35916 ft 479 kts 258°
2026-05-04 19:22 40.99853 37.13774 35917 ft 478 kts 258°
2026-05-04 19:23 40.98602 37.05059 35912 ft 478 kts 258°
2026-05-04 19:23 40.97358 36.96447 35913 ft 480 kts 258°
2026-05-04 19:24 40.96098 36.87771 35909 ft 481 kts 258°
2026-05-04 19:24 40.94830 36.79095 35908 ft 481 kts 258°
2026-05-04 19:25 40.93556 36.70417 35909 ft 481 kts 257°
2026-05-04 19:25 40.92277 36.61745 35904 ft 480 kts 257°
2026-05-04 19:26 40.90987 36.53066 35904 ft 480 kts 258°
2026-05-04 19:26 40.89661 36.44393 35899 ft 482 kts 257°
2026-05-04 19:27 40.88337 36.35735 35899 ft 482 kts 258°
2026-05-04 19:27 40.87021 36.27038 35894 ft 483 kts 257°
2026-05-04 19:28 40.85700 36.18339 35889 ft 483 kts 258°
2026-05-04 19:28 40.84387 36.09716 35876 ft 482 kts 258°
2026-05-04 19:29 40.83062 36.01054 35874 ft 482 kts 258°
2026-05-04 19:29 40.81723 35.92360 35874 ft 484 kts 258°
2026-05-04 19:30 40.80376 35.83679 35860 ft 485 kts 257°
2026-05-04 19:30 40.79012 35.74915 35861 ft 485 kts 257°
2026-05-04 19:31 40.77648 35.66224 35853 ft 486 kts 257°
2026-05-04 19:31 40.76272 35.57494 35848 ft 485 kts 257°
2026-05-04 19:32 40.74892 35.48773 35846 ft 485 kts 257°
2026-05-04 19:32 40.73484 35.40059 35848 ft 487 kts 257°
2026-05-04 19:33 40.72051 35.31289 35850 ft 489 kts 258°
2026-05-04 19:33 40.70644 35.22588 35842 ft 489 kts 258°
2026-05-04 19:34 40.69229 35.13818 35844 ft 488 kts 258°
2026-05-04 19:34 40.67809 35.05073 35840 ft 488 kts 258°
2026-05-04 19:35 40.66383 34.96330 35842 ft 487 kts 258°
2026-05-04 19:35 40.64949 34.87590 35842 ft 488 kts 258°
2026-05-04 19:36 40.63518 34.78907 35844 ft 488 kts 258°
2026-05-04 19:36 40.62070 34.70166 35842 ft 488 kts 258°
2026-05-04 19:37 40.60615 34.61428 35841 ft 488 kts 258°
2026-05-04 19:37 40.59157 34.52715 35851 ft 486 kts 258°
2026-05-04 19:38 40.57708 34.44096 35851 ft 486 kts 258°
2026-05-04 19:38 40.56233 34.35419 35849 ft 486 kts 258°
2026-05-04 19:39 40.54727 34.26755 35856 ft 486 kts 258°
2026-05-04 19:39 40.53232 34.18090 35852 ft 485 kts 258°
2026-05-04 19:40 40.51746 34.09434 35862 ft 485 kts 258°
2026-05-04 19:40 40.50269 34.00852 35863 ft 485 kts 258°
2026-05-04 19:41 40.48774 33.92211 35862 ft 485 kts 258°
2026-05-04 19:41 40.47270 33.83568 35871 ft 486 kts 258°
2026-05-04 19:42 40.45296 33.75118 35861 ft 486 kts 247°
2026-05-04 19:42 40.43725 33.71285 35731 ft 469 kts 237°
2026-05-04 19:42 40.41764 33.67919 35100 ft 463 kts 228°
2026-05-04 19:42 40.39432 33.65014 34220 ft 464 kts 220°
2026-05-04 19:43 40.36892 33.62389 33185 ft 466 kts 217°
2026-05-04 19:43 40.34274 33.59860 32084 ft 469 kts 217°
2026-05-04 19:43 40.31636 33.57334 30986 ft 472 kts 217°
2026-05-04 19:43 40.28991 33.54766 29879 ft 475 kts 217°
2026-05-04 19:44 40.26344 33.52151 28629 ft 476 kts 217°
2026-05-04 19:44 40.23715 33.49523 27522 ft 474 kts 216°
2026-05-04 19:44 40.21110 33.46899 26478 ft 470 kts 216°
2026-05-04 19:44 40.18542 33.44310 25621 ft 462 kts 216°
2026-05-04 19:45 40.16048 33.41704 24863 ft 454 kts 217°
2026-05-04 19:45 40.13664 33.39054 24126 ft 445 kts 218°
2026-05-04 19:45 40.11363 33.36421 23385 ft 437 kts 218°
2026-05-04 19:45 40.09108 33.33817 22420 ft 431 kts 218°
2026-05-04 19:46 40.06892 33.31264 21510 ft 425 kts 219°
2026-05-04 19:46 40.04681 33.28728 20549 ft 423 kts 220°
2026-05-04 19:46 40.02445 33.26263 19662 ft 418 kts 217°
2026-05-04 19:46 40.00157 33.23958 18839 ft 413 kts 216°
2026-05-04 19:47 39.97854 33.21735 18017 ft 409 kts 215°
2026-05-04 19:47 39.95575 33.19568 17199 ft 402 kts 215°
2026-05-04 19:47 39.93332 33.17441 16384 ft 397 kts 215°
2026-05-04 19:47 39.91114 33.15333 15592 ft 391 kts 215°
2026-05-04 19:48 39.88920 33.13242 14735 ft 390 kts 216°
2026-05-04 19:48 39.86720 33.11143 13980 ft 385 kts 215°
2026-05-04 19:48 39.84612 33.09134 13193 ft 381 kts 215°
2026-05-04 19:48 39.82483 33.07110 12400 ft 377 kts 215°
2026-05-04 19:49 39.80375 33.05109 11663 ft 372 kts 215°
2026-05-04 19:49 39.78296 33.03138 10961 ft 367 kts 216°
2026-05-04 19:49 39.76265 33.01211 10659 ft 352 kts 215°
2026-05-04 19:49 39.74342 32.99386 10527 ft 333 kts 214°
2026-05-04 19:50 39.72514 32.97650 10392 ft 318 kts 214°
2026-05-04 19:50 39.70817 32.96041 10285 ft 286 kts 214°
2026-05-04 19:50 39.69265 32.94571 9991 ft 270 kts 214°
2026-05-04 19:50 39.67759 32.93150 9939 ft 258 kts 214°
2026-05-04 19:51 39.66396 32.91859 9890 ft 229 kts 214°
2026-05-04 19:51 39.65153 32.90682 9921 ft 216 kts 214°
2026-05-04 19:51 39.64096 32.89498 9814 ft 190 kts 226°
2026-05-04 19:51 39.63313 32.88180 8923 ft 184 kts 242°
2026-05-04 19:52 39.62801 32.86610 7710 ft 189 kts 261°
2026-05-04 19:52 39.62668 32.84979 6874 ft 178 kts 278°
2026-05-04 19:52 39.62835 32.83462 6149 ft 169 kts 290°
2026-05-04 19:52 39.63235 32.82083 5506 ft 161 kts 301°
2026-05-04 19:53 39.63828 32.80845 5195 ft 162 kts 310°
2026-05-04 19:53 39.64599 32.79783 4971 ft 162 kts 319°
2026-05-04 19:53 39.65481 32.78866 4844 ft 164 kts 325°
2026-05-04 19:53 39.66521 32.78338 4695 ft 164 kts 348°
2026-05-04 19:54 39.67649 32.78272 4843 ft 167 kts
2026-05-04 19:54 39.68788 32.78597 4867 ft 169 kts 18°
2026-05-04 19:54 39.69835 32.79305 4906 ft 172 kts 30°
2026-05-04 19:54 39.70824 32.80189 4531 ft 170 kts 31°
2026-05-04 19:55 39.71782 32.81094 4704 ft 177 kts 33°
2026-05-04 19:55 39.72833 32.82059 4973 ft 189 kts 31°
2026-05-04 19:55 39.73922 32.83037 5268 ft 194 kts 32°
2026-05-04 19:55 39.75016 32.84044 5662 ft 191 kts 33°
2026-05-04 19:56 39.76092 32.85055 5916 ft 191 kts 33°
2026-05-04 19:56 39.77169 32.86068 5961 ft 194 kts 33°
2026-05-04 19:56 39.78231 32.87068 6593 ft 188 kts 33°
2026-05-04 19:56 39.79291 32.88067 6950 ft 189 kts 34°
2026-05-04 19:57 39.80357 32.89072 7321 ft 190 kts 35°
2026-05-04 19:57 39.81439 32.90093 7731 ft 193 kts 36°
2026-05-04 19:57 39.82538 32.91133 7917 ft 196 kts 36°
2026-05-04 19:57 39.83640 32.92180 7927 ft 196 kts 36°
2026-05-04 19:58 39.84740 32.93226 7929 ft 195 kts 36°
2026-05-04 19:58 39.85841 32.94274 7925 ft 189 kts 36°
2026-05-04 19:58 39.86873 32.95255 7897 ft 182 kts 36°
2026-05-04 19:58 39.87870 32.96204 7924 ft 175 kts 36°
2026-05-04 19:59 39.88873 32.97095 7923 ft 173 kts 28°
2026-05-04 19:59 39.90078 32.97621 7942 ft 189 kts
2026-05-04 19:59 39.91375 32.97474 7119 ft 193 kts 339°
2026-05-04 19:59 39.92478 32.96537 6398 ft 190 kts 321°
2026-05-04 20:00 39.93428 32.95453 5912 ft 179 kts 319°
2026-05-04 20:00 39.94324 32.94412 5483 ft 168 kts 319°
2026-05-04 20:00 39.95190 32.93403 5118 ft 164 kts 318°
2026-05-04 20:00 39.96020 32.92429 4675 ft 163 kts 317°
2026-05-04 20:01 39.96861 32.91438 4247 ft 163 kts 317°
2026-05-04 20:01 39.97739 32.90488 4032 ft 166 kts 326°
2026-05-04 20:01 39.98800 32.89901 4029 ft 169 kts 348°
2026-05-04 20:01 39.99989 32.89971 4530 ft 171 kts 12°
2026-05-04 20:02 40.01083 32.90617 4709 ft 174 kts 28°
2026-05-04 20:02 40.02095 32.91426 4264 ft 167 kts 32°
2026-05-04 20:02 40.03039 32.92273 4114 ft 166 kts 34°
2026-05-04 20:02 40.03966 32.93198 4047 ft 168 kts 37°
2026-05-04 20:03 40.04906 32.94109 4002 ft 168 kts 33°
2026-05-04 20:03 40.05859 32.94994 4055 ft 168 kts 35°
2026-05-04 20:03 40.06800 32.95897 3970 ft 168 kts 36°
2026-05-04 20:03 40.07726 32.96783 3728 ft 165 kts 34°
2026-05-04 20:04 40.08660 32.97672 3485 ft 167 kts 35°
2026-05-04 20:04 40.09604 32.98568 3260 ft 168 kts 36°
2026-05-04 20:04 40.10519 32.99435 3140 ft 148 kts 36°
2026-05-04 20:04 40.11010 32.99904 3144 ft 109 kts 37°
2026-05-04 20:05 40.11463 33.00339 3139 ft 52 kts 36°
2026-05-04 20:05 40.11642 33.00507 3140 ft 29 kts 36°
2026-05-04 20:05 40.11847 33.00642 3144 ft 31 kts 13°
2026-05-04 20:05 40.12003 33.00664 3148 ft 19 kts
2026-05-04 20:06 40.12019 33.00661 3148 ft 0 kts 345°
2026-05-04 20:07 40.12020 33.00661 3148 ft 0 kts 345°
2026-05-04 20:08 40.12025 33.00659 3148 ft 6 kts 345°
2026-05-04 20:08 40.12132 33.00680 3147 ft 24 kts 24°
2026-05-04 20:08 40.12257 33.00789 3145 ft 21 kts 36°
2026-05-04 20:08 40.12370 33.00895 3144 ft 20 kts 36°
2026-05-04 20:09 40.12479 33.00998 3146 ft 18 kts 36°
2026-05-04 20:09 40.12571 33.01085 3147 ft 16 kts 36°
2026-05-04 20:09 40.12655 33.01164 3149 ft 14 kts 37°
2026-05-04 20:09 40.12721 33.01228 3151 ft 10 kts 37°
2026-05-04 20:10 40.12772 33.01278 3151 ft 9 kts 37°
2026-05-04 20:10 40.12828 33.01328 3151 ft 11 kts 27°
2026-05-04 20:10 40.12891 33.01300 3150 ft 11 kts 318°
2026-05-04 20:10 40.12946 33.01209 3149 ft 13 kts 306°
2026-05-04 20:11 40.12997 33.01118 3151 ft 12 kts 307°
2026-05-04 20:11 40.13041 33.01041 3151 ft 10 kts 304°
2026-05-04 20:11 40.13082 33.00966 3150 ft 10 kts 305°
2026-05-04 20:11 40.13121 33.00895 3148 ft 10 kts 306°
2026-05-04 20:12 40.13168 33.00812 3145 ft 12 kts 306°
2026-05-04 20:12 40.13219 33.00722 3143 ft 13 kts 306°
2026-05-04 20:12 40.13275 33.00622 3140 ft 15 kts 306°
2026-05-04 20:12 40.13320 33.00592 3140 ft 16 kts 359°
2026-05-04 20:13 40.13472 33.00723 3140 ft 37 kts 37°